Location: Charmentray
(48.9453°N, 2.7765°E)
Time: 02:33:58
(UTC+00:00)

Daily predictions for brighter satellites

Satellite Brightness Start Highest point End
(mag) Time Altitude Azimuth Time Altitude Azimuth Time Altitude Azimuth
Cosmos 1943 Rocket 3.9 03:30:59 29° NE 03:30:59 29° NE 03:33:53 10° NE
USA 238 DEB 4.3 03:34:56 49° E 03:34:56 49° E 03:40:42 10° NE
USA 238 4.3 03:35:00 49° E 03:35:00 49° E 03:40:48 10° NE
USA 215 3.7 03:38:12 10° E 03:44:01 54° NE 03:44:01 54° NE
BREEZE-M DEB (TANK) 4.2 03:59:21 39° SE 03:59:21 39° SE 04:05:55 10° ESE
Cosmos 2278 Rocket 4.3 04:05:51 16° N 04:05:51 16° N 04:07:04 10° NNE
COSMO-SKYMED 1 3.6 04:20:20 10° SE 04:24:26 42° ENE 04:24:46 41° NE
Meteor 2-3 Rocket 3.7 04:27:08 71° N 04:27:08 71° N 04:32:16 10° NNE
CENTAUR R/B 2.4 04:30:49 70° WNW 04:31:01 70° NW 04:38:20 10° NE
Cosmos 1634 Rocket 3.9 04:30:39 21° N 04:35:06 89° E 04:41:20 10° S
Cosmos 1486 Rocket 4.3 04:36:22 14° S 04:40:48 66° ESE 04:46:03 10° NNE
Meteor 1-26 Rocket 4.3 04:43:21 58° SW 04:43:21 58° SW 04:48:16 10° S
Cosmos 2297 Rocket 4.5 04:40:26 10° N 04:43:59 17° NE 04:47:32 10° ENE
Cosmos 2344 3.6 04:44:25 49° WNW 04:45:54 57° NW 04:53:56 10° NE
NOSS 3-2 (A) 3.6 04:48:00 49° NW 04:48:07 49° NW 04:54:40 10° NE
Tsikada Rocket 3.9 04:46:12 38° SW 04:48:34 63° WNW 04:54:50 10° N
Cosmos 2369 Rocket 2.1 04:47:36 28° SSW 04:50:39 85° ESE 04:56:18 10° NNE
Meteor 1-31 Rocket 3.7 04:50:24 10° NNE 04:54:12 49° E 04:57:59 10° S
NOSS 3-2 (C) 3.3 04:55:42 53° W 04:56:53 65° NW 05:03:33 10° NE
SJ 16-02 4.0 04:54:55 10° SE 04:58:09 21° E 05:01:24 10° NE
H-2A R/B 3.2 04:54:34 10° NNE 05:00:49 20° S 05:02:04 10° S
SL-27 R/B 3.8 04:58:53 31° NNE 04:59:48 37° ENE 05:03:07 10° SE
Envisat 3.0 04:55:32 10° NNE 05:00:39 79° ESE 05:05:44 10° S
Kosmos-917 4.1 05:02:07 56° N 05:02:07 56° N 05:06:42 10° NE
Landsat 5 3.7 04:57:42 10° SSE 05:02:12 78° ENE 05:04:30 28° N
Cosmos 1656 Rocket 3.6 04:56:59 10° SSW 05:02:22 78° ESE 05:07:51 10° NNE
Cosmos 968 Rocket 3.6 05:06:21 51° WNW 05:06:21 51° WNW 05:11:14 10° NNE
Meteor 2-8 Rocket 4.5 05:00:24 10° N 05:06:35 81° E 05:12:43 10° SSE
Cosmos 2098 Rocket 3.0 05:06:20 10° SSW 05:10:25 74° W 05:15:42 10° N
Cosmos 1862 3.1 05:07:58 10° S 05:11:55 85° WNW 05:15:53 10° N
Cosmos 1943 Rocket 2.7 05:12:33 37° NW 05:12:33 37° NW 05:17:37 10° NNE
SKYMED 2 3.4 05:08:08 10° S 05:12:27 66° WSW 05:13:22 50° NW
FALCON 9 DEB 4.4 05:13:35 27° NE 05:13:35 27° NE 05:15:17 10° ENE
CZ-2C R/B 2.5 05:07:11 10° S 05:12:38 70° WSW 05:16:42 18° NNW
SL-8 R/B 4.1 05:15:27 42° WSW 05:16:27 50° SSW 05:21:04 10° SE
FALCON 9 DEB 4.3 05:17:23 27° NE 05:17:23 27° NE 05:19:11 10° ENE
FALCON 9 DEB 4.3 05:18:11 28° NNE 05:18:11 28° NNE 05:20:01 10° ENE
Cosmos 2227 Rocket 4.3 05:15:50 10° N 05:19:56 20° NE 05:24:00 10° E
Meteor 2-13 Rocket 4.5 05:14:57 10° SSW 05:20:54 53° WNW 05:26:52 10° N
FALCON 9 DEB 3.4 05:25:10 48° N 05:25:10 48° N 05:28:27 10° ENE
USA 238 DEB 3.9 05:22:25 31° W 05:25:11 48° NW 05:31:56 10° NE
USA 238 3.9 05:22:29 31° W 05:25:16 48° NW 05:32:02 10° NE
SJ-12 3.9 05:22:19 10° N 05:26:23 55° WNW 05:30:25 10° SSW
USA 215 3.2 05:20:56 10° SE 05:27:28 73° SW 05:31:22 26° WNW
CBERS 1 LM4 rocket 4.3 05:22:48 10° NNE 05:27:40 77° WNW 05:32:41 10° SSW
H-2A R/B 3.0 05:24:22 10° SE 05:28:28 47° ENE 05:32:41 10° N
Cosmos 1151 Rocket 3.4 05:28:45 39° W 05:28:46 39° W 05:32:50 10° SSW
MOS 1-B Rocket 4.4 05:28:43 10° SSW 05:34:23 37° W 05:37:28 22° NW
Cosmos 1354 Rocket 4.0 05:29:38 10° SSW 05:34:56 90° NW 05:40:17 10° NNE
Okean 3 Rocket 3.6 05:30:47 10° SSW 05:35:15 56° WNW 05:39:45 10° N
CZ-4B R/B 3.6 05:35:15 10° NNE 05:38:44 48° E 05:42:13 10° S
NOAA 11 4.3 05:33:26 10° NNE 05:38:56 79° ESE 05:44:25 10° S
FALCON 9 DEB 3.6 05:38:56 34° N 05:38:58 34° N 05:41:40 10° ENE
CZ-4B R/B 3.5 05:37:06 10° SE 05:39:55 26° ENE 05:42:41 10° N
ADEOS 3.5 05:36:05 10° NNE 05:41:22 89° ESE 05:46:35 10° SSW
Cosmos 1766 Rocket 3.8 05:37:28 10° SSW 05:41:35 42° WNW 05:45:44 10° N
NOSS 2 (A) 4.3 05:44:15 43° NNW 05:44:59 71° NE 05:47:29 10° SE
Lacrosse 4 Rocket 4.0 05:43:09 10° N 05:45:44 15° NNE 05:48:21 10° ENE
Meteor 1-27 Rocket 3.7 05:41:30 10° NNW 05:47:10 84° W 05:52:56 10° S
Cosmos 1328 Rocket 4.1 05:45:56 24° NW 05:47:47 35° W 05:51:44 10° SSW
Cosmos 2278 Rocket 4.2 05:47:42 11° NNW 05:47:58 11° NNW 05:49:15 10° N
CZ-2C R/B 3.0 05:52:00 10° NNE 05:56:54 87° ESE 06:01:59 10° SSW
ATLAS 5 CENTAUR R/B 2.0 05:56:05 10° SSW 05:59:50 56° SE 06:04:06 10° NE
COSMO-SKYMED 1 3.7 05:57:20 10° SW 06:00:47 23° W 06:01:58 20° WNW
Cosmos 1538 Rocket 4.1 05:56:06 10° NNW 06:01:23 83° ENE 06:06:35 10° SSE
Cosmos 1340 Rocket 2.8 05:58:03 10° S 06:02:00 84° E 06:06:02 10° NNE
CZ-4C R/B 3.8 06:01:01 10° SSW 06:03:39 24° W 06:04:09 23° W
Meteor PRIRODA 3.5 06:01:29 10° N 06:05:05 69° WNW 06:08:41 10° SSW
Cosmos 1607 4.1 05:59:11 12° NW 06:05:06 72° NE 06:11:15 10° SE
COSMOS 2487 2.2 06:06:46 12° NNW 06:09:54 86° WSW 06:13:15 10° SSE
Cosmos 1515 3.6 06:06:46 10° NNW 06:10:35 83° W 06:14:23 10° S
H-2A R/B 3.7 06:06:40 10° NNE 06:11:13 36° E 06:15:45 10° SSE
Nadezhda 4 Rocket 4.0 06:08:20 10° SSW 06:14:26 63° WNW 06:20:39 10° N
Cosmos 1408 Rocket 3.9 06:10:57 10° SW 06:15:00 40° WNW 06:19:05 10° N
Cosmos 1939 Rocket 2.7 06:11:47 10° NNE 06:15:44 86° WNW 06:19:37 10° SSW
Cosmos 1503 Rocket 4.5 06:10:55 10° SW 06:15:51 39° WNW 06:20:53 10° NNE
Meteor 1-25 Rocket 4.4 06:12:53 10° S 06:18:29 79° E 06:24:05 10° NNE
Cosmos 2228 Rocket 3.1 06:14:43 10° NNW 06:19:14 80° W 06:23:45 10° S
USA 32 4.0 06:16:00 10° N 06:21:14 69° W 06:26:26 10° S
Cosmos 1680 Rocket 4.5 06:17:25 10° NNW 06:22:33 47° ENE 06:27:38 10° SE
CENTAUR R/B 3.7 06:18:01 13° WNW 06:23:03 31° NNW 06:29:48 10° NE
Cosmos 1743 Rocket 3.6 06:19:36 10° SSW 06:23:56 59° WNW 06:28:15 10° N
Cosmos 1777 Rocket 4.0 06:19:19 10° SW 06:24:29 64° WNW 06:29:43 10° NNE
Meteor 1-31 Rocket 4.2 06:25:35 10° NNW 06:28:14 18° WNW 06:30:53 10° WSW
EP 2 4.5 06:25:28 10° SW 06:28:29 71° NW 06:31:32 10° NE
Cosmos 2297 Rocket 2.7 06:23:36 10° NNW 06:29:15 62° ENE 06:34:51 10° SE
Cosmos 1092 Rocket 4.0 06:24:39 10° SSW 06:30:55 78° W 06:37:17 10° N
Cosmos 1666 4.2 06:28:46 10° SSE 06:32:19 40° E 06:35:53 10° NNE
Cosmos 1428 Rocket 4.5 06:26:37 10° S 06:32:46 85° W 06:38:55 10° N
SL-27 R/B 4.1 06:32:22 11° WNW 06:34:33 18° W 06:37:01 10° SW
Okean 1 3.2 06:30:44 10° NNW 06:34:42 80° W 06:38:39 10° S
Cosmos 2369 Rocket 3.3 06:31:05 10° W 06:35:25 22° NW 06:39:47 10° N
SMAP 3.0 06:30:58 10° N 06:35:38 73° WNW 06:40:16 10° SSW
NOAA 6 4.0 06:31:01 10° NNE 06:36:10 83° WNW 06:41:17 10° SSW
SJ 16-02 1.6 06:32:09 10° SW 06:36:23 47° WNW 06:40:39 10° NNE
Cosmos 923 Rocket 4.3 06:31:20 10° NNW 06:36:43 76° ENE 06:42:03 10° SSE
OPS 6432 4.1 06:34:47 10° NW 06:37:44 90° WNW 06:41:08 10° SE
Envisat 4.3 06:35:41 10° NNW 06:39:04 18° WNW 06:42:28 10° W
Meteor 1-18 Rocket 4.4 06:35:46 10° NNW 06:41:41 90° WSW 06:47:26 10° S
CZ-2D R/B 3.2 06:40:24 10° NNE 06:44:13 87° WNW 06:48:00 10° SSW
AQUARIUS 4.1 06:39:45 10° N 06:44:13 68° WNW 06:48:41 10° SSW
Cosmos 1689 Rocket 4.0 06:43:56 10° SE 06:46:08 25° ENE 06:48:21 10° NNE
FengYun 1-2 T 4.3 06:41:45 10° N 06:47:09 58° WNW 06:52:30 10° SSW
FALCON 9 DEB 3.4 06:45:15 10° WNW 06:48:02 41° NNE 06:50:48 10° E
ATLAS 3B R/B 2.7 06:44:29 10° SW 06:51:04 80° NW 06:58:02 10° NE
